Lee's Summit, MO

7:03 PM CDT on August 16, 2017 (GMT -0500)
Lee's Summit Municipal

Weather History for KLXT - April, 2013

Change the Weather History Date:

Wednesday, April 10, 2013

  Actual Average (KMKC) Record (KMKC)
Temperature  
Mean Temperature 50 °F -  
Max Temperature 55 °F 62 °F 87 °F (2011)
Min Temperature 39 °F 43 °F 32 °F (1997)
Degree Days  
Heating Degree Days 14    
Moisture  
Dew Point 42 °F    
Average Humidity 90    
Maximum Humidity 94    
Minimum Humidity 86    
Precipitation  
Precipitation 1.03 in - - ()
Sea Level Pressure  
Sea Level Pressure 29.82 in    
Wind  
Wind Speed 11 mph (NW)    
Max Wind Speed 16 mph    
Max Gust Speed 28 mph    
Visibility 6 miles    
Events Rain , Thunderstorm    
Averages and records for this station are not official NWS values.
T = Trace of Precipitation, MM = Missing Value Source: NWS Daily Summary

Daily Weather History Graph

Daily Weather History Graph

Search for Another Location

Airport or City:

Trip Planner

Search our weather history database for the weather conditions in past years. The results will help you decide how hot, cold, wet, or windy it might be!

Date:

Astronomy

Apr. 10, 2013 Rise Set
Actual Time 6:47 AM CDT 7:50 PM CDT
Civil Twilight 6:20 AM CDT 8:17 PM CDT
Nautical Twilight 5:48 AM CDT 8:50 PM CDT
Astronomical Twilight 5:14 AM CDT 9:23 PM CDT
Moon 6:44 AM CDT (4/10) 8:26 PM CDT (4/10)
Length of Visible Light 13h 56m
Length of Day
13h 02m
New Moon, 0% of the Moon is Illuminated
Apr 10
New Moon
Apr 18
First Quarter
Apr 25
Full
May 2
Last Quarter
May 9
New

Hourly Weather History & Observations

Time (CDT) Temp. Windchill Dew Point Humidity Pressure Visibility Wind Dir Wind Speed Gust Speed Precip Events Conditions
12:34 AM 60.8 °F - 57.2 °F 88% 29.74 in 7.0 mi NW 16.1 mph 21.9 mph N/A   Overcast
12:53 AM 55.9 °F - 53.1 °F 90% 29.78 in 7.0 mi WNW 12.7 mph 25.3 mph N/A   Overcast
1:53 AM 46.9 °F - 43.0 °F 86% 29.83 in 10.0 mi NNW 13.8 mph 27.6 mph 0.01 in   Overcast
2:01 AM 46.4 °F 40.4 °F 42.8 °F 87% 29.83 in 10.0 mi North 13.8 mph 21.9 mph 0.00 in Rain Light Rain
2:15 AM 46.4 °F 40.7 °F 44.6 °F 93% 29.83 in 10.0 mi North 12.7 mph - 0.00 in Rain Light Rain
2:53 AM 48.0 °F - 45.0 °F 89% 29.77 in 10.0 mi ENE 9.2 mph - 0.06 in   Overcast
3:53 AM 50.0 °F - 48.0 °F 93% 29.72 in 10.0 mi NE 8.1 mph - N/A   Overcast
4:02 AM 51.8 °F - 48.2 °F 88% 29.73 in 10.0 mi North 6.9 mph - N/A Thunderstorm Thunderstorm
4:30 AM 50.0 °F - 48.2 °F 94% 29.80 in 2.0 mi Calm Calm - 0.10 in Rain , Thunderstorm Thunderstorms and Rain
4:42 AM 50.0 °F - 46.4 °F 87% 29.85 in 1.8 mi WSW 16.1 mph 24.2 mph 0.24 in Rain , Thunderstorm Heavy Thunderstorms and Rain
4:44 AM 50.0 °F - 46.4 °F 87% 29.87 in 2.0 mi WSW 16.1 mph 24.2 mph 0.26 in Rain , Thunderstorm Heavy Thunderstorms and Rain
4:53 AM 50.0 °F - 48.0 °F 93% 29.81 in 2.0 mi NW 6.9 mph - 0.33 in Rain , Thunderstorm Heavy Thunderstorms and Rain
5:08 AM 50.0 °F - 48.2 °F 94% 29.82 in 8.0 mi WSW 6.9 mph - 0.06 in Rain , Thunderstorm Light Thunderstorms and Rain
5:20 AM 50.0 °F - 48.2 °F 94% 29.85 in 10.0 mi West 10.4 mph - 0.06 in Rain Light Rain
5:53 AM 46.9 °F - 45.0 °F 93% 29.83 in 10.0 mi West 5.8 mph - 0.06 in Rain Light Rain
6:53 AM 45.0 °F 38.9 °F 43.0 °F 93% 29.88 in 4.0 mi WNW 12.7 mph 17.3 mph 0.05 in Rain Rain
7:53 AM 45.0 °F 40.6 °F 42.1 °F 90% 29.86 in 10.0 mi NNW 8.1 mph - 0.02 in   Overcast
8:53 AM 45.0 °F 39.7 °F 42.1 °F 90% 29.88 in 10.0 mi WNW 10.4 mph - N/A   Overcast
9:15 AM 44.6 °F 42.2 °F 42.8 °F 93% 29.90 in 2.0 mi WNW 4.6 mph - 0.08 in Rain Heavy Rain
9:36 AM 42.8 °F 35.8 °F 41.0 °F 93% 29.88 in 3.0 mi WNW 13.8 mph - 0.13 in Rain Light Rain
9:43 AM 42.8 °F 36.2 °F 41.0 °F 93% 29.85 in 4.0 mi NNW 12.7 mph - 0.14 in Rain Light Rain
9:53 AM 43.0 °F 36.0 °F 41.0 °F 93% 29.83 in 4.0 mi North 13.8 mph - 0.15 in Rain Light Rain
10:00 AM 42.8 °F 39.3 °F 39.2 °F 87% 29.87 in 5.0 mi WNW 5.8 mph 18.4 mph 0.00 in Rain Light Rain
10:29 AM 42.8 °F 37.0 °F 39.2 °F 87% 29.94 in 2.0 mi West 10.4 mph - 0.06 in Rain Heavy Rain
10:48 AM 42.8 °F 36.2 °F 39.2 °F 87% 29.89 in 3.0 mi WNW 12.7 mph - 0.12 in Rain Rain
10:53 AM 42.1 °F 36.6 °F 39.9 °F 92% 29.89 in 4.0 mi NW 9.2 mph - 0.12 in Rain Light Rain
11:10 AM 42.8 °F 36.6 °F 39.2 °F 87% 29.90 in 6.0 mi WNW 11.5 mph - 0.01 in Rain Light Rain
11:53 AM 43.0 °F 36.0 °F 39.9 °F 89% 29.84 in 10.0 mi NNW 13.8 mph - 0.03 in   Overcast
12:45 PM 42.8 °F 36.2 °F 39.2 °F 87% 29.82 in 2.5 mi NNW 12.7 mph 17.3 mph 0.05 in Rain Rain
1:53 PM 44.1 °F 40.1 °F 41.0 °F 89% 29.83 in 10.0 mi NNW 6.9 mph - 0.00 in   Overcast
2:53 PM 43.0 °F 35.4 °F 39.9 °F 89% 29.86 in 8.0 mi WNW 16.1 mph 21.9 mph 0.01 in Rain Rain
3:53 PM 43.0 °F 36.8 °F 39.9 °F 89% 29.79 in 6.0 mi NW 11.5 mph - 0.10 in Rain Light Rain
4:53 PM 42.1 °F 35.7 °F 39.9 °F 92% 29.76 in 9.0 mi NNW 11.5 mph - 0.01 in Rain Light Rain
5:35 PM 42.8 °F 38.0 °F 39.2 °F 87% 29.77 in 2.5 mi NW 8.1 mph - 0.05 in Rain Rain
5:42 PM 42.8 °F 37.5 °F 39.2 °F 87% 29.74 in 4.0 mi North 9.2 mph - 0.06 in Rain Rain
5:53 PM 42.1 °F 34.9 °F 39.9 °F 92% 29.78 in 6.0 mi WNW 13.8 mph - 0.07 in Rain Light Rain
6:53 PM 43.0 °F 36.0 °F 39.9 °F 89% 29.77 in 10.0 mi WNW 13.8 mph - 0.00 in   Overcast
7:53 PM 42.1 °F 37.1 °F 39.9 °F 92% 29.80 in 10.0 mi West 8.1 mph - N/A   Overcast
8:15 PM 42.8 °F 36.6 °F 39.2 °F 87% 29.77 in 2.5 mi West 11.5 mph - 0.01 in Rain Light Rain
8:17 PM 42.8 °F 36.6 °F 39.2 °F 87% 29.77 in 3.0 mi West 11.5 mph - 0.01 in Rain Light Rain
8:34 PM 42.8 °F 37.5 °F 39.2 °F 87% 29.78 in 4.0 mi WNW 9.2 mph - 0.01 in   Overcast
8:53 PM 42.1 °F 36.1 °F 39.9 °F 92% 29.80 in 7.0 mi West 10.4 mph - 0.01 in   Overcast
9:53 PM 41.0 °F 34.7 °F 39.0 °F 93% 29.78 in 6.0 mi NW 10.4 mph - N/A   Overcast
10:53 PM 41.0 °F 35.2 °F 37.9 °F 89% 29.81 in 10.0 mi West 9.2 mph - N/A   Overcast
11:53 PM 39.9 °F 31.8 °F 37.9 °F 93% 29.79 in 6.0 mi West 15.0 mph 21.9 mph N/A   Overcast